Other Surface Observations
Issued by NWS Tucson, AZ

Home | Current Version | Previous Version | Text Only | Print | Product List | Glossary On
Versions: 1 2 3 4 5 6 7 8 9 10 11 12 13 14 15 16 17 18 19 20 21 22 23 24 25 26 27 28 29 30 31 32 33 34 35 36 37 38 39 40 41 42 43 44 45 46 47 48 49 50
000
SXUS55 KTWC 250015
OSOTWC

WEATHER ROUNDUP FOR SOUTHEAST ARIZONA
NATIONAL WEATHER SERVICE TUCSON AZ
515 PM MST FRI APR 24 2015

AZZ504>506-514-250115-
LOCATION       SKY/WX    TMP DP  RH WIND       PRES   REMARKS
TUCSON         PTSUNNY   75  30  19 W16G22    29.92S
DAVIS-MONTHAN  MOSUNNY   75  32  20 W13G20    29.90S
CHILDRENS PARK N/A       74  36  25 NW7               PIMA CO DEQ
ALVERNON/22ND  N/A      N/A N/A N/A N/A               PIMA CO DEQ
CHERRY/GLENN   N/A      N/A N/A N/A N/A               PIMA CO DEQ
TANGERINE      N/A       74 N/A N/A W7                PIMA CO DEQ
CONTL RANCH    N/A       77  35  22 W8                PIMA CO DEQ
GRANT/1ST      N/A       74  34  23 W3                PIMA CO DEQ
CRAYCROFT/22ND N/A      N/A N/A N/A N/A               PIMA CO DEQ
GOLFLINKS/KOLB N/A      N/A N/A N/A N/A               PIMA CO DEQ
AJO/12TH       N/A       76  32  20 SW10              PIMA CO DEQ
SAGUARO EAST   N/A      N/A N/A N/A N/A               PIMA CO DEQ
FAIRGROUNDS    N/A       73 N/A N/A W14               PIMA CO DEQ
SAGUARO        N/A       75  36  24 W9G15             *SABINO CYN
SAN CARLOS     N/A       68  39  34 W8G19             *SAN CARLOS
GREEN VALLEY   N/A      N/A N/A N/A N/A               PIMA CO DEQ
HORSE CAMP CYN N/A       64  42  44 W10G16            *ARAVAIPA CYN
RINCON MTNS    N/A       47  28  48 SW5G17            *NR MANNING CAMP
$$

AZZ509>511-250115-
LOCATION       SKY/WX    TMP DP  RH WIND       PRES   REMARKS
SAFFORD        MOSUNNY   72  34  24 NW18G24   29.88F
STRAY HORSE    N/A       41  28  60 W16G25            *
TRAIL CABIN    N/A       52  31  45 W7G17             *N OF GRANVILLE
BLACK HILLS    N/A       67  38  35 NW10G19           *N OF FT THOMAS
DRY LAKE       N/A       50  36  58 W7G14             *NATANES MTNS
NOON CREEK     N/A       66  32  28 E6G16             *PINALENO MTNS
COLUMBINE      N/A       43  26  50 S9G24             *PINALENO MTNS
GUTHRIE        N/A       54  29  38 W15G32            *SW OF GUTHRIE
$$

AZZ502-503-513-250115-
LOCATION       SKY/WX    TMP DP  RH WIND       PRES   REMARKS
NOGALES        PTSUNNY   71  33  24 S10       29.96F
SELLS          N/A       75  38  26 SW13G24           *
SASABE         N/A       72  36  27 SW14G26           *ALTAR VLY
HOPKINS        N/A       59  29  32 W9G24             *SANTA RITA MTNS
CARR CYN       N/A       64  31  29 W5G17             *W OF HEREFORD
$$

AZZ507-508-512-250115-
LOCATION       SKY/WX    TMP DP  RH WIND       PRES   REMARKS
SIERRA VISTA   MOSUNNY   66  27  22 W15       29.99R
DOUGLAS        SUNNY     70  25  18 W20G31    29.96S
EMPIRE MTNS    N/A       67  29  24 SW14G26           *LAS CIENEGAS NCA
MULESHOE RANCH N/A       67  33  28 W10G23            *PRESERVE
HEADQUARTERS   N/A       65  25  22 W10G21            *CHIRICAHUA MTNS
$$

.............................NOTES.............................
THIS IS AN AUTOMATED COLLECTIVE WITH MINIMAL QUALITY CONTROL.
PIMA CO DEQ SITES HAVE NONSTANDARD WIND SENSOR HEIGHTS.
PIMA CO DEQ SITES DO NOT REPORT WIND GUSTS.
* INDICATES WIND SENSORS LOCATED AT 20 FEET INSTEAD OF 33 FEET.
..............................KEY..............................
SKY/WX - SKY CONDITION/WEATHER
TMP    - TEMPERATURE IN FAHRENHEIT
DP     - DEWPOINT IN FAHRENHEIT
RH     - RELATIVE HUMIDITY IN PERCENT
WIND   - DIRECTION AND SPEED IN MILES PER HOUR (MPH)
VRB    - VARIABLE WIND DIRECTION
PRES   - MEAN SEA LEVEL PRESSURE IN INCHES OF MERCURY
         F - FALLING PRESSURE   R - RISING PRESSURE
         S - STEADY PRESSURE
VSB    - VISIBILITY IN MILES
HX     - HEAT INDEX IN FAHRENHEIT
WCI    - WIND CHILL INDEX IN FAHRENHEIT
N/A    - NOT AVAILABLE
AFB    - AIR FORCE BASE
         DAVIS-MONTHAN IS DAVIS-MONTHAN AIR FORCE BASE
CYN    - CANYON
MTNS   - MOUNTAINS
NCA    - NATIONAL CONSERVATION AREA
NR     - NEAR
VLY    - VALLEY
CONTL  - CONTINENTAL
PIMA CO DEQ - PIMA COUNTY DEPT OF ENVIRONMENTAL QUALITY



USA.gov is the U.S. government's official web portal to all federal, state and local government web resources and services.